[[{"header":{"parameterUnit":"m.s-1","parameterCategory":1,"la1":30.2991,"la2":30.254,"lo1":-89.0895,"lo2":-89.0444,"dy":0.0017,"dx":0.0017,"nx":28,"ny":28,"refTime":"2026-02-01T03:00:00:Z","depth":0,"parameterNumber":2,"parameterNumberName":"U-component_of_WINDS"},"data":[0,0,0,0,0,0,0,0,0,0,0,0,0,0,0,0,0,0,0,0,0,0,0,0,0,0,0,0,0,0,0,0,0,0,0,0,0,0,0,0,0,0,0,0,0,0,0,0,0,0,0,0,0,0,0,0,0,0,1.6057,1.6057,0,1.6096,1.6097,1.6097,1.6113,1.6112,1.6112,1.6112,1.6152,1.6153,1.6154,0,0,0,0,0,0,0,0,0,0,0,0,0,1.5994,1.5995,1.6057,1.6057,1.6058,1.6096,1.6097,1.6097,1.6113,1.6112,1.6112,1.6112,1.6151,1.6153,1.6154,0,0,0,0,0,0,0,0,0,0,0,0,0,1.6026,1.5995,1.6056,1.607,1.6071,1.6096,1.6097,1.6098,1.6113,1.6112,1.6112,1.6112,1.6151,1.6153,1.6154,1.6168,0,0,1.616,1.616,0,0,0,0,0,0,0,0,1.6024,1.6028,1.6067,1.6069,1.6071,1.6099,1.6089,1.6121,1.6113,1.6097,1.6112,1.6112,1.6134,1.6137,1.6145,1.617,1.6172,1.616,1.6161,1.6162,1.6162,0,0,0,0,0,0,0,1.6022,1.6027,1.6072,1.6068,1.607,1.6074,1.6078,1.6095,1.6116,1.6098,1.6099,1.6104,1.6135,1.6144,1.6146,1.6172,1.616,1.6161,1.6162,1.6163,1.6212,1.6212,0,0,0,0,0,0,1.6017,1.6025,1.6071,1.6073,1.6047,1.6075,1.608,1.609,1.6116,1.612,1.6104,1.6105,1.6141,1.6144,1.6148,1.6166,1.6162,1.6163,1.6164,1.6212,1.6212,1.6212,0,0,0,0,0,0,1.6016,1.6021,1.6069,1.6049,1.6056,1.6076,1.6088,1.6091,1.6099,1.612,1.6124,1.6109,1.6141,1.6145,1.6163,1.6168,1.6164,1.6166,1.6212,1.6212,1.6212,1.6203,0,0,0,0,0,0,1.6014,1.6021,1.6026,1.6049,1.6057,1.6084,1.6088,1.6092,1.6103,1.6104,1.6126,1.6129,1.6141,1.6161,1.6165,1.617,1.6167,1.6211,1.6212,1.6212,1.6203,1.6203,1.6203,0,0,0,0,0,1.6012,1.6022,1.6026,1.6032,1.6064,1.6085,1.6089,1.6102,1.6103,1.6109,1.6122,1.6128,1.6167,1.6162,1.6168,1.6173,1.6211,1.6212,1.6212,1.6203,1.6203,1.6203,0,0,0,0,0,0,1.5998,1.6025,1.603,1.6048,1.6064,1.6087,1.6095,1.6102,1.6118,1.6118,1.6134,1.6139,1.6156,1.6166,1.6161,1.6189,1.6189,1.6191,1.6181,1.6181,1.6181,1.6178,1.6168,0,0,0,0,0,1.5997,1.6011,1.6034,1.6048,1.6056,1.6074,1.6083,1.6092,1.6109,1.6116,1.6131,1.6147,1.6163,1.6173,1.6188,1.6205,1.6211,1.6212,1.6212,1.6212,1.6213,1.6224,1.6224,1.6214,1.6214,1.6214,0,0,1.5995,1.6011,1.6019,1.6045,1.6059,1.6073,1.6079,1.6094,1.6105,1.6118,1.6136,1.6148,1.6167,1.6185,1.6194,1.6194,1.6217,1.6213,1.6212,1.6214,1.6224,1.6225,1.6226,1.6215,1.6215,1.6215,0,0,1.5999,1.6013,1.6026,1.6039,1.606,1.6072,1.6075,1.6098,1.6106,1.6125,1.6135,1.6149,1.6175,1.6189,1.6199,1.621,1.6216,1.6214,1.6214,1.6225,1.6225,1.6226,1.623,1.6231,1.6215,1.6215,1.6215,0,1.5993,1.6016,1.6031,1.6046,1.6058,1.6071,1.6084,1.6097,1.6121,1.6128,1.6129,1.6164,1.6178,1.6199,1.6202,1.621,1.6214,1.6211,1.6224,1.6225,1.6226,1.623,1.6231,1.6215,1.6215,1.6215,1.6215,0,1.6009,1.6024,1.6033,1.6057,1.6069,1.6083,1.61,1.6111,1.612,1.6132,1.6151,1.6169,1.6188,1.6194,1.6202,1.6217,1.6217,1.6221,1.6222,1.6226,1.623,1.6232,1.6215,1.6215,1.6215,1.6215,0,0,1.6004,1.6037,1.604,1.6051,1.6075,1.6088,1.6103,1.6123,1.6132,1.6149,1.6162,1.6185,1.6189,1.62,1.6211,1.6219,1.6227,1.6222,1.6223,1.6222,1.6245,1.6242,1.6244,1.6232,1.6233,1.6233,1.6244,0,1.6011,1.6038,1.6053,1.6074,1.6089,1.6103,1.6116,1.6133,1.6145,1.6159,1.6173,1.6189,1.6193,1.62,1.621,1.6224,1.6232,1.6224,1.6244,1.6245,1.6239,1.6246,1.6242,1.6252,1.6245,1.6246,1.6246,0,1.6022,1.604,1.6063,1.6086,1.6093,1.6105,1.6125,1.6138,1.6158,1.6166,1.618,1.619,1.6207,1.6207,1.6231,1.6225,1.6234,1.6243,1.6244,1.6246,1.6245,1.6248,1.6255,1.6256,1.6248,1.6248,1.6248,0,1.6016,1.6046,1.6063,1.6073,1.61,1.6108,1.612,1.6139,1.6151,1.6168,1.6176,1.6195,1.6205,1.622,1.6236,1.6234,1.6258,1.6259,1.6265,1.6265,1.6269,1.6268,1.6277,1.6276,1.6276,1.6276,1.6275,0,1.6023,1.6036,1.6061,1.6072,1.6088,1.6105,1.612,1.6133,1.615,1.6164,1.6177,1.619,1.6209,1.6225,1.6237,1.6255,1.6259,1.6267,1.627,1.6265,1.6264,1.6271,1.6271,1.6276,1.6276,1.6276,1.6276,0,1.6018,1.6036,1.6056,1.6081,1.6088,1.6098,1.612,1.6131,1.6144,1.6162,1.6167,1.6188,1.6207,1.6224,1.6248,1.6257,1.6275,1.6279,1.6268,1.627,1.6275,1.6274,1.6288,1.6291,1.6288,1.6288,1.6288,0,1.6021,1.6032,1.6058,1.6069,1.6081,1.6097,1.6109,1.6127,1.6138,1.6162,1.617,1.619,1.6207,1.6236,1.6254,1.6273,1.6278,1.6281,1.628,1.6276,1.6278,1.6277,1.6278,1.6281,1.6281,1.6281,1.6281,0,1.6024,1.6032,1.6049,1.6069,1.6083,1.6099,1.6116,1.6124,1.6145,1.6158,1.6178,1.6191,1.6217,1.6236,1.6258,1.627,1.6279,1.6281,1.6284,1.6279,1.6272,1.6276,1.6268,1.628,1.628,1.628,1.628,1.628,1.6023,1.6034,1.6054,1.6073,1.6087,1.6103,1.6115,1.6131,1.6147,1.617,1.6179,1.6199,1.6219,1.6249,1.6262,1.6278,1.628,1.6283,1.6284,1.6284,1.6284,1.627,1.6282,1.6282,1.6282,1.6282,1.6282,0,1.6027,1.6041,1.6058,1.6081,1.6096,1.6104,1.6123,1.6135,1.6152,1.617,1.6187,1.621,1.6229,1.6249,1.627,1.6279,1.6283,1.6283,1.6283,1.6286,1.6281,1.6277,1.6279,1.6279,1.6279,1.6279,1.6279,1.6279,1.603,1.6048,1.6059,1.6085,1.61,1.6119,1.613,1.6145,1.6159,1.6184,1.6201,1.6214,1.6232,1.6255,1.6273,1.6278,1.6285,1.6284,1.6291,1.6286,1.6286,1.6286,1.6282,1.6286,1.6286,1.6294,1.6294,1.6294]},{"header":{"parameterUnit":"m.s-1","parameterCategory":1,"la1":30.2991,"la2":30.254,"lo1":-89.0895,"lo2":-89.0444,"dy":0.0017,"dx":0.0017,"nx":28,"ny":28,"refTime":"2026-02-01T03:00:00:Z","depth":0,"parameterNumber":3,"parameterNumberName":"V-component_of_WINDS"},"data":[0,0,0,0,0,0,0,0,0,0,0,0,0,0,0,0,0,0,0,0,0,0,0,0,0,0,0,0,0,0,0,0,0,0,0,0,0,0,0,0,0,0,0,0,0,0,0,0,0,0,0,0,0,0,0,0,0,0,-8.2826,-8.2828,0,-8.3053,-8.3055,-8.3058,-8.3001,-8.2997,-8.2993,-8.2988,-8.3216,-8.3226,-8.3236,0,0,0,0,0,0,0,0,0,0,0,0,0,-8.2338,-8.2348,-8.2826,-8.2829,-8.2831,-8.3052,-8.3056,-8.3059,-8.3002,-8.2997,-8.2991,-8.2986,-8.3212,-8.3224,-8.3237,0,0,0,0,0,0,0,0,0,0,0,0,0,-8.2556,-8.2351,-8.2825,-8.283,-8.2833,-8.3052,-8.3056,-8.306,-8.3003,-8.2997,-8.299,-8.2984,-8.3208,-8.3223,-8.3238,-8.3465,0,0,-8.3285,-8.3291,0,0,0,0,0,0,0,0,-8.2544,-8.2574,-8.2826,-8.283,-8.2833,-8.2992,-8.2967,-8.3195,-8.3005,-8.2938,-8.2988,-8.2981,-8.3146,-8.3166,-8.3223,-8.3476,-8.3485,-8.3286,-8.3295,-8.3302,-8.3306,0,0,0,0,0,0,0,-8.2529,-8.2564,-8.2915,-8.283,-8.2834,-8.2819,-8.2843,-8.301,-8.3077,-8.2944,-8.294,-8.2968,-8.3147,-8.3209,-8.3228,-8.3489,-8.3286,-8.3299,-8.3309,-8.3315,-8.3939,-8.3946,0,0,0,0,0,0,-8.2512,-8.2552,-8.2908,-8.2922,-8.267,-8.2833,-8.286,-8.2948,-8.3075,-8.3088,-8.2973,-8.2965,-8.3186,-8.321,-8.3236,-8.351,-8.3302,-8.3316,-8.3325,-8.3931,-8.394,-8.3948,0,0,0,0,0,0,-8.2501,-8.2544,-8.2899,-8.2736,-8.278,-8.2849,-8.2948,-8.2956,-8.3018,-8.3097,-8.3108,-8.3025,-8.3182,-8.3214,-8.3409,-8.3517,-8.3323,-8.3337,-8.3922,-8.3934,-8.3944,-8.406,0,0,0,0,0,0,-8.2488,-8.2541,-8.2629,-8.2739,-8.2789,-8.307,-8.2955,-8.2965,-8.3045,-8.3035,-8.3148,-8.3161,-8.3179,-8.3386,-8.3424,-8.3535,-8.3349,-8.3913,-8.3928,-8.3941,-8.4047,-8.4074,-8.4097,0,0,0,0,0,-8.247,-8.2651,-8.2633,-8.2677,-8.2901,-8.3076,-8.3105,-8.3124,-8.3054,-8.3142,-8.3193,-8.3157,-8.3499,-8.3407,-8.3449,-8.3566,-8.3906,-8.3923,-8.394,-8.4036,-8.4069,-8.4097,0,0,0,0,0,0,-8.255,-8.2665,-8.2647,-8.2869,-8.2964,-8.3067,-8.3179,-8.3158,-8.3273,-8.3259,-8.3276,-8.3302,-8.3501,-8.3552,-8.3448,-8.3792,-8.3692,-8.3718,-8.3751,-8.3783,-8.3808,-8.3791,-8.3361,0,0,0,0,0,-8.2594,-8.2728,-8.2821,-8.3008,-8.3056,-8.311,-8.3187,-8.3194,-8.3291,-8.333,-8.3396,-8.3491,-8.3619,-8.3704,-8.3827,-8.4054,-8.4078,-8.4155,-8.418,-8.42,-8.4222,-8.4346,-8.4382,-8.4003,-8.4003,-8.4003,0,0,-8.2685,-8.2764,-8.2848,-8.3026,-8.31,-8.3238,-8.3144,-8.3293,-8.3395,-8.3352,-8.3541,-8.3592,-8.3699,-8.3911,-8.4008,-8.396,-8.4332,-8.4221,-8.4237,-8.4248,-8.4367,-8.4403,-8.4435,-8.4014,-8.4012,-8.4011,0,0,-8.2921,-8.2995,-8.3159,-8.3236,-8.335,-8.3384,-8.3423,-8.353,-8.3563,-8.3753,-8.3724,-8.3845,-8.4066,-8.4144,-8.4212,-8.4479,-8.445,-8.4518,-8.4649,-8.477,-8.4799,-8.4826,-8.4921,-8.4955,-8.454,-8.454,-8.4541,0,-8.3019,-8.3227,-8.3245,-8.3399,-8.3477,-8.3447,-8.3613,-8.3686,-8.3833,-8.3888,-8.3833,-8.4111,-8.4181,-8.4411,-8.4476,-8.4532,-8.4577,-8.4506,-8.4794,-8.4821,-8.4846,-8.4937,-8.4972,-8.4548,-8.4547,-8.4546,-8.4546,0,-8.3342,-8.3487,-8.3605,-8.3751,-8.3843,-8.4002,-8.4043,-8.4134,-8.4132,-8.4172,-8.4365,-8.4448,-8.4587,-8.4642,-8.4642,-8.4873,-8.484,-8.4789,-8.469,-8.4889,-8.4975,-8.501,-8.4559,-8.4556,-8.4554,-8.4552,0,0,-8.3635,-8.379,-8.3833,-8.3899,-8.4023,-8.4134,-8.4291,-8.4429,-8.4507,-8.4609,-8.474,-8.4929,-8.4884,-8.4962,-8.4969,-8.5075,-8.5281,-8.5012,-8.5014,-8.5059,-8.5541,-8.5578,-8.5618,-8.5263,-8.5269,-8.5275,-8.5532,0,-8.3883,-8.4161,-8.4182,-8.4432,-8.4566,-8.4539,-8.4675,-8.4765,-8.4807,-8.4925,-8.4969,-8.5103,-8.5033,-8.508,-8.5183,-8.5234,-8.5378,-8.5216,-8.5384,-8.539,-8.5359,-8.5663,-8.5703,-8.5942,-8.5565,-8.5571,-8.5575,0,-8.4209,-8.4324,-8.4588,-8.4693,-8.475,-8.4873,-8.5001,-8.5115,-8.5216,-8.5238,-8.5326,-8.5319,-8.5479,-8.5374,-8.5593,-8.5482,-8.5552,-8.5587,-8.5597,-8.5613,-8.5495,-8.5688,-8.6018,-8.6054,-8.5628,-8.5624,-8.562,0,-8.4396,-8.4616,-8.4803,-8.486,-8.4988,-8.5075,-8.5132,-8.5226,-8.5308,-8.542,-8.5473,-8.5601,-8.5672,-8.577,-8.5798,-8.5719,-8.6017,-8.5914,-8.6039,-8.6039,-8.6103,-8.6099,-8.645,-8.6148,-8.6147,-8.6147,-8.6146,0,-8.467,-8.4833,-8.4889,-8.5004,-8.5185,-8.5207,-8.5385,-8.5437,-8.5522,-8.5645,-8.5629,-8.5744,-8.5774,-8.5895,-8.5917,-8.6095,-8.6127,-8.6148,-8.6152,-8.615,-8.6148,-8.6196,-8.618,-8.6156,-8.6154,-8.6152,-8.6151,0,-8.491,-8.4955,-8.5156,-8.5262,-8.5292,-8.5421,-8.551,-8.5619,-8.5658,-8.5815,-8.5853,-8.5914,-8.6055,-8.6093,-8.6261,-8.6276,-8.6486,-8.6475,-8.6453,-8.6453,-8.6576,-8.6564,-8.6971,-8.7025,-8.6688,-8.6691,-8.6693,0,-8.5083,-8.5207,-8.5327,-8.5409,-8.547,-8.5603,-8.5687,-8.5714,-8.5802,-8.5927,-8.6021,-8.6161,-8.6274,-8.6501,-8.656,-8.6688,-8.668,-8.6813,-8.6699,-8.6693,-8.6682,-8.6674,-8.6687,-8.6835,-8.6838,-8.6841,-8.6844,0,-8.5384,-8.54,-8.5523,-8.5654,-8.5756,-8.586,-8.5959,-8.6027,-8.6067,-8.6167,-8.6312,-8.6401,-8.6574,-8.6713,-8.6843,-8.6899,-8.6879,-8.688,-8.6915,-8.6915,-8.6897,-8.6909,-8.6513,-8.687,-8.6867,-8.6865,-8.6864,-8.6863,-8.5596,-8.5706,-8.5807,-8.5944,-8.6023,-8.6116,-8.6225,-8.6279,-8.6401,-8.6546,-8.6553,-8.6711,-8.6809,-8.6982,-8.7046,-8.7169,-8.7128,-8.718,-8.7193,-8.7206,-8.7217,-8.6878,-8.7192,-8.7192,-8.7191,-8.719,-8.719,0,-8.5896,-8.5961,-8.6087,-8.6228,-8.6336,-8.6309,-8.6418,-8.651,-8.665,-8.6743,-8.6856,-8.7023,-8.7158,-8.7227,-8.7361,-8.7446,-8.7439,-8.748,-8.7474,-8.7487,-8.7245,-8.7201,-8.7483,-8.7482,-8.7482,-8.7482,-8.7482,-8.7482,-8.6066,-8.625,-8.6278,-8.6501,-8.6564,-8.6721,-8.6785,-8.6871,-8.6946,-8.7134,-8.7247,-8.7292,-8.7376,-8.7515,-8.7637,-8.7654,-8.7704,-8.7749,-8.7761,-8.7534,-8.7504,-8.7476,-8.7434,-8.776,-8.776,-8.7993,-8.7995,-8.7997]}]]